Location: Recife
(8.0585°S, 34.8848°W)
Time: 20:11:53
(UTC-03:00)

S-56A Canister/Altair - Pass Details

Date: 23 April 2026
Orbit: 633 x 2484 km, 38.9° (Epoch: 16 May)

Event Time Altitude Azimuth Distance (km) Brightness Sun altitude
Rises 21:11:08 0° 219° (SW) 2,943 - -58.5°
Reaches altitude 10° 21:13:30 10° 212° (SSW) 2,011 - -59.1°
Maximum altitude 21:17:42 42° 140° (SE) 936 - -60.1°
Drops below altitude 10° 21:22:30 10° 68° (ENE) 2,292 - -61.3°
Sets 21:25:22 0° 62° (ENE) 3,414 - -62.0°
